User: anonymous   Login
Location: Unspecified
(0.0000°N, 0.0000°E)
Time: 05:22:59
(UTC+00:00)
Language:

ONEWEB-0373 - Orbit

View from above orbital plane
View from above orbital plane
View from above satellite
View from above satellite

Ground track
Ground track

The orbit is defined by the following mean orbital elements,

1 49299U          26145.38476544 +.00000000 +00000-0 +23880-4 0 00000
2 49299  87.9173 278.9885 0001957 101.5506 258.5847 13.20769395    01
Epoch (UTC): 25 May 2026 09:14:03
Eccentricity: 0.0001957
inclination: 87.9173°
perigee height: 1180 km
apogee height: 1183 km
right ascension of ascending node: 278.9885°
argument of perigee: 101.5506°
revolutions per day: 13.20769395
mean anomaly at epoch: 258.5847°

The dashed part of the orbit path shows where the satellite is in the earth's shadow,  

DLR